COSMOS 2573 (58614 NORAD) Tracking and Keplerian Element Data

This shows tracking and keplerian element data for the satellite.

Feedback or suggestion? Click here.




ElementValue
Catalog58614
NameCOSMOS 2573
Epoch Orbit349
Epoch Day13.21864579
Epoch Year2024
RAAN300.5952
Inclination97.5599
Eccentricity0.001108
Argument of Perigee218.3029
Mean Anonmoly141.742
Mean Motion15.2118681
Decay Rate6.883E-05
L11 58614U 23201A 24013.21864579 .00006883 00000+0 31139-3 0 9998
L22 58614 97.5599 300.5952 0011080 218.3029 141.7420 15.21186810 3497



Live tracking and technical data element details for COSMOS 2573 (NORAD 58614). COSMOS 2573 can be tracked NOW for your location showing map with azimuth and elevation plus other details from your city location.







IsCatalogInMostPopularTable: catalog: 58614, numindb: 31
Update: records affected: 1



GetName: 58614 COSMOS 2573

Hit Count: updated at: Wed, 17 Apr 2024 02:05:55 GMT